Location: Embarras
(53.3000°N, 116.9000°W)
Time: 08:47:40
(UTC+00:00)

BEESAT - Visible Passes

Search period start: 06 December 2023 00:00
Search period end: 16 December 2023 00:00
Orbit: 696 x 703 km, 98.5° (Epoch: 05 December)

Date Brightness Start Highest point End Pass type
(mag) Time Alt. Az. Time Alt. Az. Time Alt. Az.
07 Dec ? 14:26:11 10° ENE 14:28:25 13° NE 14:30:41 10° NNE visible
08 Dec ? 15:05:48 10° ESE 15:09:37 25° ENE 15:13:27 10° N visible
09 Dec ? 14:13:22 10° ENE 14:14:26 11° NE 14:15:31 10° NNE visible
10 Dec ? 14:52:09 10° E 14:55:33 20° NE 14:58:58 10° N visible
12 Dec ? 14:38:39 10° E 14:41:30 16° NE 14:44:21 10° NNE visible
14 Dec ? 14:25:20 10° ENE 14:27:28 13° NE 14:29:35 10° NNE visible
15 Dec ? 15:04:52 10° ESE 15:08:38 24° ENE 15:12:24 10° N visible
